Tracking 18840 objects as of 18-November-2017
HD Live streaming from Space Station
objects crossing your sky now

SL-14 R/B

Track SL-14 R/B now!
10-day predictions
SL-14 R/B is classified as:


NORAD ID: 11672
Int'l Code: 1980-005B
Perigee: 599.7 km
Apogee: 623.6 km
Inclination: 82.5 °
Period: 96.8 minutes
Semi major axis: 6982 km
RCS: 4.2954 m2 (large)
Launch date: January 23, 1980
Source: Commonwealth of Independent States (former USSR) (CIS)
Launch site: PLESETSK MISSILE AND SPACE COMPLEX (PKMTR)

Note: This is a ROCKET BODY
aabbcc
Your satellite tracking list
Your tracking list is empty




NASA's NSSDC Master Catalog

Two Line Element Set (TLE):
1 11672U 80005B   17321.44585916 +.00000116 +00000-0 +98939-5 0  9997
2 11672 082.5136 294.7112 0017135 163.2475 196.9313 14.87895022025077
Source of the keplerian elements: AFSPC